User: anonymous   Login
Location: Belvedere Heights
(33.9836°N, 117.3109°W)
Time: 18:01:24
(UTC+00:00)
Language:

MOZHAYETS 4 - Orbit

View from above orbital plane
View from above orbital plane
View from above satellite
View from above satellite

Ground track
Ground track

The orbit data is extracted from the following two-line orbital elements,

1 27939U 03042A   24147.56861294  .00002070  00000-0  35424-3 0  9998
2 27939  98.2890 303.4307 0013093 126.0265 308.1388 14.69892272105104
Epoch (UTC): 26 May 2024 13:38:48
Eccentricity: 0.0013093
inclination: 98.2890°
perigee height: 652 km
apogee height: 670 km
right ascension of ascending node: 303.4307°
argument of perigee: 126.0265°
revolutions per day: 14.69892272
mean anomaly at epoch: 308.1388°
orbit number at epoch: 10510

The dashed part of the orbit path shows where the satellite is in the earth's shadow,  

DLR